Location: Lake Lucerne
(45.5315°N, 88.8489°W)
Time: 22:28:04
(UTC-05:00)

Tiangong 2 - Visible Passes

Search period start: 21 August 2018 00:00
Search period end: 31 August 2018 00:00
Orbit: 384 x 395 km, 42.8° (Epoch: 21 August)

Date Brightness Start Highest point End Pass type
(mag) Time Alt. Az. Time Alt. Az. Time Alt. Az.
21 Aug 1.9 04:21:05 34° S 04:21:22 35° SSE 04:24:21 10° E visible
22 Aug 3.9 03:25:50 13° ESE 03:25:50 13° ESE 03:26:21 10° E visible
22 Aug 1.4 04:58:10 19° WSW 05:00:09 51° S 05:03:17 10° E visible
23 Aug 2.0 04:02:57 39° SE 04:02:57 39° SE 04:05:25 10° E visible
24 Aug 1.3 04:40:06 34° WSW 04:41:07 51° S 04:44:15 10° ESE visible
25 Aug 3.1 03:45:01 23° ESE 03:45:01 23° ESE 03:46:24 10° E visible
25 Aug 1.9 05:17:20 13° W 05:19:53 35° SSW 05:22:52 10° SE visible
26 Aug 1.6 04:22:21 43° S 04:22:21 43° S 04:25:08 10° ESE visible
27 Aug 2.3 04:59:51 22° SW 05:00:45 25° SSW 05:03:27 10° SE visible
28 Aug 3.5 04:05:12 15° SE 04:05:12 15° SE 04:05:53 10° SE visible
28 Aug 3.3 05:38:13 10° SW 05:39:13 11° SSW 05:40:12 10° SSW visible
29 Aug 3.5 04:43:08 12° S 04:43:08 12° S 04:43:40 10° SSE visible
